QPF
0.00 0.01 0.01 0.01 0.01 0.01 0.00 0.00 0.00 0.00 0.00 0.00 0.00 0.00 0.00 0.00 0.00 0.01 0.00 0.00 0.00 0.01 0.01 0.01 0.02 0.03 0.04 0.04 0.04 0.04 0.05 0.05 0.04 0.04 0.04 0.02 0.01 0.01 0.01 0.01 0.01 0.01 0.02 0.01 0.01 0.02 0.01 0.01 0.01
0.02 0.02 0.02 0.02 0.01 0.00 0.00 0.00 0.00 0.00 0.00 0.00 0.00 0.00 0.00 0.00 0.00 0.00 0.00 0.00 0.01 0.01 0.01 0.02 0.02 0.03 0.04 0.05 0.05 0.05 0.05 0.05 0.05 0.06 0.04 0.02 0.01 0.01 0.01 0.01 0.00 0.01 0.01 0.01 0.01 0.01 0.01 0.00 0.00
0.03 0.04 0.02 0.01 0.00 0.00 0.00 0.00 0.00 0.00 0.00 0.00 0.00 0.00 0.00 0.00 0.00 0.00 0.00 0.00 0.00 0.00 0.01 0.01 0.02 0.03 0.04 0.05 0.06 0.06 0.07 0.07 0.07 0.07 0.05 0.03 0.02 0.02 0.01 0.01 0.01 0.01 0.01 0.01 0.01 0.01 0.01 0.00 0.00
0.05 0.04 0.03 0.01 0.00 0.00 0.00 0.00 0.00 0.00 0.00 0.00 0.00 0.00 0.00 0.00 0.00 0.00 0.00 0.00 0.00 0.00 0.01 0.02 0.03 0.03 0.04 0.05 0.07 0.08 0.09 0.09 0.08 0.08 0.07 0.06 0.03 0.02 0.01 0.01 0.01 0.01 0.01 0.01 0.01 0.01 0.00 0.00 0.00
0.07 0.05 0.02 0.01 0.00 0.00 0.00 0.00 0.00 0.00 0.00 0.00 0.00 0.00 0.00 0.00 0.00 0.00 0.00 0.00 0.00 0.01 0.01 0.02 0.03 0.04 0.05 0.06 0.07 0.09 0.10 0.09 0.09 0.09 0.08 0.07 0.05 0.04 0.02 0.01 0.01 0.00 0.00 0.00 0.01 0.00 0.00 0.00 0.00
0.08 0.06 0.03 0.01 0.00 0.00 0.00 0.00 0.00 0.00 0.00 0.00 0.00 0.00 0.01 0.00 0.00 0.00 0.00 0.00 0.00 0.01 0.01 0.02 0.03 0.06 0.07 0.08 0.09 0.09 0.11 0.10 0.09 0.09 0.08 0.07 0.06 0.04 0.03 0.02 0.01 0.01 0.01 0.01 0.01 0.00 0.00 0.00 0.00
0.08 0.06 0.03 0.01 0.01 0.00 0.00 0.00 0.00 0.00 0.00 0.00 0.00 0.01 0.01 0.01 0.00 0.00 0.00 0.00 0.00 0.01 0.02 0.02 0.04 0.07 0.08 0.09 0.09 0.09 0.08 0.11 0.11 0.11 0.10 0.09 0.07 0.05 0.04 0.03 0.02 0.01 0.01 0.01 0.01 0.01 0.00 0.00 0.00
0.07 0.06 0.03 0.01 0.01 0.00 0.00 0.00 0.00 0.00 0.00 0.00 0.00 0.01 0.01 0.01 0.01 0.01 0.01 0.01 0.01 0.01 0.02 0.03 0.04 0.07 0.09 0.10 0.09 0.09 0.08 0.08 0.09 0.10 0.11 0.12 0.11 0.09 0.05 0.03 0.02 0.01 0.01 0.01 0.01 0.01 0.01 0.00 0.00
0.06 0.07 0.04 0.01 0.01 0.00 0.00 0.00 0.00 0.00 0.00 0.00 0.00 0.01 0.01 0.01 0.01 0.02 0.02 0.02 0.02 0.02 0.02 0.02 0.04 0.06 0.08 0.08 0.08 0.08 0.09 0.09 0.09 0.10 0.11 0.12 0.14 0.15 0.10 0.04 0.03 0.02 0.01 0.01 0.01 0.02 0.02 0.01 0.00
0.06 0.05 0.02 0.01 0.01 0.01 0.00 0.00 0.00 0.00 0.01 0.01 0.01 0.02 0.03 0.02 0.02 0.03 0.02 0.02 0.02 0.02 0.03 0.04 0.04 0.05 0.07 0.07 0.07 0.06 0.08 0.10 0.12 0.11 0.11 0.13 0.13 0.16 0.13 0.08 0.05 0.03 0.01 0.01 0.02 0.03 0.02 0.01 0.01
0.05 0.04 0.01 0.01 0.01 0.01 0.01 0.00 0.00 0.01 0.01 0.00 0.01 0.02 0.03 0.03 0.03 0.04 0.03 0.04 0.04 0.05 0.06 0.04 0.04 0.05 0.06 0.06 0.06 0.06 0.08 0.09 0.10 0.11 0.11 0.13 0.14 0.15 0.16 0.10 0.06 0.04 0.02 0.02 0.02 0.04 0.02 0.02 0.01
0.04 0.03 0.02 0.01 0.01 0.01 0.02 0.01 0.00 0.00 0.00 0.00 0.01 0.02 0.03 0.04 0.03 0.03 0.05 0.06 0.06 0.07 0.09 0.08 0.07 0.06 0.05 0.06 0.07 0.07 0.07 0.08 0.07 0.09 0.13 0.15 0.16 0.16 0.15 0.13 0.07 0.04 0.03 0.02 0.01 0.02 0.02 0.03 0.03
0.03 0.02 0.02 0.02 0.02 0.02 0.02 0.02 0.01 0.00 0.00 0.01 0.01 0.02 0.02 0.04 0.03 0.03 0.05 0.06 0.05 0.07 0.08 0.08 0.08 0.07 0.07 0.06 0.08 0.08 0.07 0.08 0.07 0.09 0.10 0.14 0.18 0.19 0.16 0.12 0.08 0.05 0.03 0.03 0.02 0.01 0.02 0.03 0.03
0.03 0.03 0.02 0.02 0.02 0.02 0.03 0.02 0.02 0.01 0.01 0.01 0.02 0.02 0.03 0.04 0.03 0.04 0.05 0.04 0.05 0.06 0.07 0.09 0.09 0.09 0.10 0.08 0.08 0.10 0.08 0.10 0.11 0.10 0.09 0.10 0.16 0.20 0.19 0.17 0.12 0.08 0.06 0.04 0.03 0.02 0.02 0.03 0.02
0.04 0.04 0.03 0.02 0.01 0.01 0.02 0.03 0.02 0.01 0.02 0.01 0.02 0.02 0.03 0.05 0.05 0.04 0.04 0.03 0.04 0.06 0.07 0.08 0.11 0.11 0.11 0.11 0.10 0.10 0.10 0.10 0.13 0.10 0.11 0.10 0.12 0.17 0.18 0.17 0.15 0.09 0.07 0.06 0.04 0.03 0.02 0.02 0.02
0.05 0.06 0.04 0.02 0.01 0.01 0.03 0.03 0.02 0.01 0.02 0.02 0.01 0.02 0.05 0.08 0.07 0.05 0.04 0.05 0.05 0.06 0.07 0.10 0.10 0.10 0.09 0.09 0.10 0.11 0.10 0.11 0.14 0.13 0.11 0.12 0.09 0.09 0.12 0.13 0.13 0.12 0.09 0.06 0.04 0.03 0.02 0.02 0.02
0.06 0.06 0.04 0.02 0.01 0.02 0.03 0.03 0.02 0.02 0.03 0.02 0.01 0.02 0.06 0.11 0.09 0.09 0.08 0.07 0.08 0.07 0.08 0.12 0.11 0.10 0.10 0.11 0.11 0.12 0.11 0.11 0.12 0.14 0.13 0.13 0.12 0.09 0.09 0.09 0.09 0.10 0.11 0.10 0.07 0.04 0.02 0.02 0.02
0.05 0.04 0.03 0.02 0.01 0.02 0.04 0.03 0.04 0.05 0.04 0.04 0.03 0.03 0.08 0.12 0.09 0.09 0.10 0.10 0.10 0.08 0.08 0.11 0.12 0.10 0.12 0.13 0.11 0.10 0.11 0.11 0.11 0.12 0.11 0.12 0.13 0.12 0.10 0.08 0.07 0.07 0.10 0.11 0.11 0.07 0.03 0.03 0.02
0.03 0.03 0.03 0.02 0.02 0.03 0.04 0.04 0.06 0.06 0.07 0.06 0.04 0.05 0.10 0.12 0.08 0.08 0.10 0.11 0.09 0.08 0.08 0.08 0.11 0.13 0.14 0.14 0.11 0.08 0.07 0.08 0.10 0.10 0.10 0.08 0.10 0.14 0.12 0.08 0.06 0.06 0.07 0.10 0.13 0.12 0.06 0.03 0.03
0.02 0.03 0.02 0.02 0.02 0.03 0.04 0.06 0.07 0.05 0.07 0.07 0.05 0.06 0.09 0.11 0.11 0.09 0.10 0.12 0.10 0.11 0.10 0.08 0.09 0.11 0.11 0.13 0.11 0.07 0.05 0.04 0.06 0.08 0.09 0.08 0.08 0.12 0.18 0.13 0.08 0.06 0.06 0.06 0.10 0.14 0.11 0.05 0.03
0.03 0.03 0.02 0.03 0.04 0.04 0.05 0.06 0.04 0.04 0.05 0.06 0.05 0.05 0.07 0.08 0.09 0.09 0.08 0.10 0.11 0.13 0.11 0.08 0.09 0.11 0.09 0.11 0.12 0.07 0.05 0.04 0.05 0.07 0.07 0.07 0.08 0.09 0.14 0.20 0.15 0.09 0.07 0.06 0.08 0.11 0.13 0.10 0.05
0.02 0.02 0.02 0.02 0.04 0.04 0.04 0.06 0.04 0.03 0.04 0.04 0.05 0.05 0.06 0.07 0.08 0.08 0.06 0.08 0.10 0.10 0.11 0.09 0.08 0.10 0.12 0.11 0.10 0.08 0.05 0.04 0.03 0.04 0.05 0.05 0.05 0.06 0.09 0.13 0.18 0.14 0.09 0.08 0.08 0.11 0.12 0.11 0.08
0.01 0.01 0.02 0.03 0.04 0.04 0.05 0.06 0.05 0.02 0.02 0.02 0.03 0.04 0.05 0.07 0.08 0.07 0.07 0.09 0.10 0.10 0.08 0.07 0.07 0.08 0.11 0.13 0.10 0.08 0.05 0.03 0.03 0.03 0.03 0.04 0.04 0.04 0.05 0.08 0.12 0.16 0.13 0.09 0.08 0.08 0.11 0.13 0.11
0.02 0.02 0.03 0.04 0.04 0.04 0.04 0.05 0.04 0.02 0.02 0.02 0.02 0.03 0.04 0.05 0.07 0.06 0.06 0.07 0.11 0.13 0.09 0.06 0.04 0.04 0.06 0.11 0.12 0.09 0.06 0.04 0.03 0.03 0.03 0.04 0.04 0.05 0.05 0.08 0.10 0.11 0.15 0.14 0.10 0.07 0.07 0.08 0.11
0.02 0.04 0.06 0.06 0.05 0.04 0.02 0.03 0.04 0.02 0.01 0.01 0.02 0.02 0.03 0.04 0.04 0.03 0.04 0.06 0.08 0.11 0.08 0.06 0.05 0.04 0.04 0.06 0.09 0.10 0.08 0.05 0.04 0.04 0.03 0.04 0.04 0.05 0.05 0.07 0.11 0.11 0.11 0.12 0.12 0.10 0.08 0.07 0.07
0.02 0.03 0.05 0.06 0.03 0.02 0.02 0.02 0.02 0.01 0.01 0.01 0.01 0.02 0.02 0.03 0.03 0.03 0.03 0.05 0.07 0.08 0.06 0.05 0.04 0.03 0.04 0.05 0.06 0.07 0.08 0.06 0.04 0.04 0.03 0.03 0.03 0.04 0.05 0.05 0.06 0.08 0.09 0.09 0.10 0.10 0.08 0.07 0.06
0.02 0.02 0.02 0.04 0.03 0.03 0.02 0.02 0.01 0.01 0.00 0.00 0.01 0.01 0.01 0.01 0.01 0.02 0.03 0.03 0.05 0.06 0.05 0.04 0.04 0.04 0.04 0.04 0.03 0.03 0.04 0.04 0.04 0.03 0.03 0.03 0.03 0.04 0.05 0.06 0.06 0.06 0.07 0.07 0.07 0.09 0.08 0.06 0.06
0.01 0.01 0.02 0.03 0.04 0.04 0.02 0.02 0.01 0.01 0.01 0.01 0.01 0.01 0.01 0.01 0.01 0.02 0.03 0.03 0.03 0.04 0.04 0.03 0.03 0.03 0.03 0.03 0.02 0.02 0.02 0.02 0.03 0.03 0.03 0.03 0.03 0.04 0.04 0.05 0.06 0.07 0.07 0.06 0.06 0.06 0.05 0.04 0.04
0.01 0.01 0.01 0.02 0.03 0.05 0.03 0.02 0.02 0.01 0.01 0.01 0.01 0.01 0.01 0.01 0.01 0.01 0.02 0.02 0.02 0.03 0.04 0.03 0.03 0.03 0.02 0.02 0.02 0.01 0.01 0.01 0.02 0.02 0.02 0.02 0.03 0.03 0.03 0.04 0.05 0.07 0.07 0.06 0.06 0.04 0.04 0.03 0.03
0.03 0.03 0.01 0.02 0.02 0.03 0.03 0.03 0.02 0.01 0.01 0.01 0.01 0.01 0.01 0.01 0.00 0.00 0.01 0.01 0.01 0.02 0.03 0.03 0.03 0.03 0.02 0.02 0.02 0.01 0.01 0.01 0.01 0.01 0.02 0.02 0.02 0.02 0.03 0.03 0.04 0.05 0.07 0.07 0.06 0.04 0.03 0.03 0.02
MSLP
1012.18 1012.20 1012.17 1011.98 1011.59 1010.97 1010.12 1009.11 1008.04 1006.99 1006.06 1005.29 1004.68 1004.21 1003.82 1003.45 1003.08 1002.70 1002.36 1002.11 1002.02 1002.14 1002.49 1003.05 1003.76 1004.53 1005.30 1006.00 1006.61 1007.16 1007.67 1008.20 1008.79 1009.45 1010.17 1010.91 1011.60 1012.21 1012.69 1013.06 1013.33 1013.56 1013.81 1014.12 1014.50 1014.95 1015.43 1015.89 1016.29
1012.27 1012.21 1012.05 1011.71 1011.14 1010.34 1009.33 1008.19 1007.02 1005.93 1004.97 1004.21 1003.63 1003.19 1002.83 1002.51 1002.19 1001.88 1001.61 1001.46 1001.47 1001.70 1002.16 1002.81 1003.59 1004.42 1005.22 1005.94 1006.56 1007.10 1007.62 1008.17 1008.78 1009.48 1010.23 1010.99 1011.71 1012.32 1012.81 1013.16 1013.43 1013.66 1013.93 1014.26 1014.68 1015.17 1015.69 1016.19 1016.63
1012.34 1012.19 1011.89 1011.38 1010.64 1009.67 1008.54 1007.31 1006.09 1004.99 1004.05 1003.32 1002.77 1002.36 1002.03 1001.73 1001.43 1001.15 1000.93 1000.83 1000.93 1001.26 1001.82 1002.57 1003.43 1004.33 1005.17 1005.92 1006.55 1007.10 1007.62 1008.17 1008.79 1009.49 1010.24 1011.01 1011.73 1012.36 1012.85 1013.22 1013.51 1013.77 1014.07 1014.44 1014.90 1015.43 1015.99 1016.52 1016.97
1012.38 1012.12 1011.68 1011.01 1010.12 1009.03 1007.81 1006.54 1005.33 1004.26 1003.39 1002.72 1002.22 1001.84 1001.52 1001.21 1000.90 1000.61 1000.39 1000.32 1000.46 1000.86 1001.49 1002.32 1003.27 1004.24 1005.14 1005.92 1006.58 1007.15 1007.67 1008.22 1008.82 1009.51 1010.25 1011.02 1011.74 1012.37 1012.89 1013.30 1013.63 1013.95 1014.29 1014.71 1015.20 1015.76 1016.33 1016.87 1017.33
1012.35 1011.98 1011.41 1010.62 1009.62 1008.46 1007.20 1005.96 1004.80 1003.83 1003.05 1002.47 1002.04 1001.70 1001.38 1001.04 1000.68 1000.34 1000.09 999.99 1000.13 1000.54 1001.21 1002.09 1003.10 1004.12 1005.08 1005.92 1006.62 1007.22 1007.76 1008.31 1008.90 1009.57 1010.30 1011.05 1011.77 1012.42 1012.97 1013.43 1013.83 1014.21 1014.61 1015.07 1015.59 1016.15 1016.72 1017.24 1017.69
1012.22 1011.76 1011.09 1010.22 1009.16 1007.98 1006.76 1005.59 1004.56 1003.71 1003.07 1002.60 1002.25 1001.95 1001.63 1001.25 1000.83 1000.41 1000.07 999.90 999.98 1000.35 1001.00 1001.88 1002.90 1003.96 1004.97 1005.86 1006.62 1007.27 1007.86 1008.43 1009.04 1009.70 1010.42 1011.15 1011.87 1012.54 1013.13 1013.64 1014.10 1014.55 1015.01 1015.51 1016.04 1016.59 1017.12 1017.61 1018.02
1011.97 1011.44 1010.72 1009.81 1008.75 1007.62 1006.50 1005.46 1004.58 1003.91 1003.42 1003.09 1002.83 1002.57 1002.25 1001.84 1001.34 1000.82 1000.37 1000.09 1000.05 1000.32 1000.88 1001.70 1002.69 1003.74 1004.78 1005.72 1006.56 1007.28 1007.93 1008.56 1009.20 1009.88 1010.60 1011.33 1012.05 1012.73 1013.35 1013.91 1014.43 1014.93 1015.43 1015.95 1016.48 1017.01 1017.51 1017.94 1018.31
1011.63 1011.05 1010.30 1009.41 1008.42 1007.39 1006.40 1005.53 1004.83 1004.34 1004.01 1003.81 1003.65 1003.45 1003.14 1002.70 1002.14 1001.52 1000.95 1000.53 1000.35 1000.46 1000.89 1001.58 1002.48 1003.49 1004.51 1005.49 1006.39 1007.20 1007.95 1008.66 1009.37 1010.08 1010.82 1011.55 1012.27 1012.95 1013.59 1014.18 1014.73 1015.28 1015.81 1016.35 1016.87 1017.37 1017.82 1018.21 1018.53
1011.20 1010.61 1009.89 1009.06 1008.16 1007.26 1006.43 1005.74 1005.22 1004.89 1004.72 1004.64 1004.57 1004.43 1004.15 1003.70 1003.10 1002.42 1001.75 1001.19 1000.85 1000.79 1001.04 1001.56 1002.32 1003.22 1004.20 1005.18 1006.13 1007.02 1007.87 1008.68 1009.47 1010.25 1011.02 1011.76 1012.48 1013.16 1013.79 1014.39 1014.97 1015.54 1016.10 1016.64 1017.16 1017.64 1018.06 1018.41 1018.69
1010.76 1010.18 1009.51 1008.77 1007.98 1007.22 1006.54 1006.00 1005.63 1005.44 1005.39 1005.40 1005.41 1005.33 1005.09 1004.67 1004.07 1003.36 1002.63 1001.98 1001.51 1001.28 1001.33 1001.66 1002.24 1002.99 1003.87 1004.82 1005.78 1006.74 1007.67 1008.58 1009.47 1010.32 1011.13 1011.90 1012.62 1013.28 1013.91 1014.51 1015.09 1015.68 1016.25 1016.81 1017.34 1017.82 1018.23 1018.56 1018.82
1010.33 1009.80 1009.21 1008.56 1007.89 1007.24 1006.68 1006.24 1005.96 1005.85 1005.85 1005.92 1005.98 1005.95 1005.77 1005.41 1004.87 1004.20 1003.47 1002.79 1002.23 1001.87 1001.75 1001.88 1002.26 1002.85 1003.59 1004.45 1005.39 1006.37 1007.36 1008.36 1009.33 1010.25 1011.12 1011.92 1012.64 1013.30 1013.92 1014.51 1015.10 1015.69 1016.29 1016.87 1017.43 1017.93 1018.35 1018.69 1018.96
1009.98 1009.52 1009.00 1008.43 1007.85 1007.28 1006.77 1006.37 1006.12 1006.00 1006.01 1006.08 1006.15 1006.16 1006.04 1005.77 1005.33 1004.76 1004.12 1003.48 1002.91 1002.48 1002.24 1002.21 1002.41 1002.80 1003.39 1004.13 1004.99 1005.95 1006.97 1008.02 1009.05 1010.04 1010.96 1011.80 1012.54 1013.20 1013.82 1014.41 1015.00 1015.61 1016.23 1016.85 1017.45 1018.00 1018.47 1018.84 1019.14
1009.72 1009.33 1008.89 1008.38 1007.84 1007.29 1006.78 1006.35 1006.03 1005.85 1005.79 1005.81 1005.86 1005.89 1005.83 1005.66 1005.37 1004.95 1004.46 1003.94 1003.44 1003.03 1002.73 1002.60 1002.65 1002.88 1003.29 1003.89 1004.65 1005.54 1006.54 1007.60 1008.68 1009.72 1010.69 1011.56 1012.33 1013.02 1013.64 1014.23 1014.84 1015.47 1016.13 1016.80 1017.47 1018.07 1018.61 1019.04 1019.39
1009.57 1009.25 1008.85 1008.38 1007.83 1007.25 1006.67 1006.14 1005.71 1005.41 1005.23 1005.15 1005.15 1005.16 1005.16 1005.09 1004.95 1004.72 1004.42 1004.07 1003.73 1003.40 1003.14 1002.98 1002.94 1003.04 1003.31 1003.76 1004.39 1005.19 1006.12 1007.16 1008.24 1009.31 1010.33 1011.25 1012.06 1012.78 1013.43 1014.05 1014.67 1015.34 1016.04 1016.76 1017.49 1018.17 1018.77 1019.28 1019.68
1009.51 1009.23 1008.86 1008.38 1007.79 1007.13 1006.45 1005.80 1005.23 1004.78 1004.46 1004.27 1004.19 1004.17 1004.18 1004.20 1004.18 1004.13 1004.03 1003.89 1003.73 1003.55 1003.39 1003.27 1003.21 1003.24 1003.41 1003.73 1004.24 1004.92 1005.77 1006.76 1007.82 1008.90 1009.95 1010.91 1011.77 1012.54 1013.23 1013.88 1014.54 1015.23 1015.97 1016.74 1017.52 1018.27 1018.95 1019.52 1019.97
1009.50 1009.25 1008.87 1008.34 1007.69 1006.95 1006.16 1005.39 1004.70 1004.12 1003.68 1003.39 1003.22 1003.15 1003.15 1003.20 1003.27 1003.34 1003.40 1003.44 1003.46 1003.46 1003.44 1003.41 1003.39 1003.42 1003.53 1003.77 1004.17 1004.75 1005.51 1006.43 1007.46 1008.53 1009.60 1010.60 1011.51 1012.33 1013.07 1013.76 1014.45 1015.17 1015.93 1016.74 1017.56 1018.35 1019.09 1019.72 1020.22
1009.51 1009.25 1008.84 1008.26 1007.54 1006.72 1005.86 1005.02 1004.26 1003.61 1003.11 1002.74 1002.51 1002.38 1002.35 1002.37 1002.45 1002.56 1002.70 1002.85 1003.00 1003.15 1003.27 1003.36 1003.43 1003.51 1003.63 1003.83 1004.17 1004.67 1005.35 1006.20 1007.18 1008.24 1009.31 1010.35 1011.31 1012.18 1012.96 1013.69 1014.40 1015.13 1015.90 1016.72 1017.55 1018.38 1019.15 1019.82 1020.36
1009.53 1009.22 1008.75 1008.12 1007.35 1006.50 1005.63 1004.79 1004.04 1003.41 1002.92 1002.56 1002.30 1002.12 1002.01 1001.96 1001.95 1002.00 1002.11 1002.26 1002.46 1002.69 1002.91 1003.12 1003.30 1003.46 1003.63 1003.86 1004.18 1004.64 1005.27 1006.06 1007.00 1008.04 1009.11 1010.17 1011.17 1012.07 1012.90 1013.65 1014.38 1015.11 1015.87 1016.66 1017.49 1018.31 1019.09 1019.79 1020.36
1009.56 1009.18 1008.63 1007.95 1007.17 1006.33 1005.52 1004.77 1004.14 1003.64 1003.26 1002.96 1002.73 1002.52 1002.32 1002.13 1001.96 1001.84 1001.79 1001.83 1001.96 1002.17 1002.43 1002.71 1002.99 1003.26 1003.52 1003.81 1004.16 1004.63 1005.23 1005.99 1006.90 1007.91 1008.98 1010.05 1011.07 1012.01 1012.86 1013.63 1014.35 1015.06 1015.80 1016.56 1017.35 1018.15 1018.92 1019.62 1020.21
1009.62 1009.14 1008.53 1007.81 1007.04 1006.28 1005.59 1005.03 1004.60 1004.32 1004.13 1003.98 1003.82 1003.60 1003.31 1002.94 1002.54 1002.16 1001.84 1001.65 1001.60 1001.69 1001.91 1002.21 1002.55 1002.91 1003.28 1003.66 1004.09 1004.59 1005.21 1005.97 1006.85 1007.85 1008.91 1009.98 1011.01 1011.97 1012.83 1013.60 1014.32 1015.00 1015.69 1016.41 1017.15 1017.91 1018.66 1019.34 1019.94
1009.76 1009.18 1008.50 1007.76 1007.04 1006.39 1005.89 1005.56 1005.41 1005.40 1005.47 1005.52 1005.47 1005.27 1004.89 1004.33 1003.66 1002.95 1002.30 1001.78 1001.45 1001.33 1001.42 1001.67 1002.04 1002.47 1002.94 1003.43 1003.95 1004.53 1005.19 1005.96 1006.85 1007.84 1008.89 1009.95 1010.98 1011.94 1012.81 1013.58 1014.28 1014.93 1015.58 1016.24 1016.93 1017.64 1018.34 1019.00 1019.59
1010.06 1009.38 1008.64 1007.91 1007.25 1006.74 1006.43 1006.35 1006.49 1006.77 1007.10 1007.37 1007.46 1007.29 1006.83 1006.10 1005.15 1004.10 1003.08 1002.19 1001.53 1001.14 1001.04 1001.18 1001.53 1002.00 1002.55 1003.15 1003.77 1004.44 1005.16 1005.97 1006.88 1007.86 1008.90 1009.95 1010.97 1011.93 1012.79 1013.55 1014.24 1014.86 1015.47 1016.08 1016.71 1017.37 1018.03 1018.66 1019.23
1010.56 1009.82 1009.05 1008.33 1007.74 1007.35 1007.22 1007.36 1007.74 1008.28 1008.85 1009.30 1009.51 1009.39 1008.87 1007.98 1006.79 1005.44 1004.06 1002.82 1001.82 1001.15 1000.82 1000.82 1001.10 1001.58 1002.18 1002.86 1003.59 1004.34 1005.14 1006.00 1006.92 1007.91 1008.94 1009.97 1010.98 1011.93 1012.79 1013.54 1014.21 1014.82 1015.39 1015.96 1016.55 1017.15 1017.77 1018.36 1018.91
1011.34 1010.56 1009.79 1009.10 1008.57 1008.28 1008.27 1008.55 1009.10 1009.80 1010.52 1011.11 1011.40 1011.30 1010.74 1009.74 1008.37 1006.77 1005.11 1003.57 1002.27 1001.33 1000.78 1000.63 1000.82 1001.27 1001.90 1002.64 1003.43 1004.27 1005.13 1006.03 1006.98 1007.97 1008.99 1010.01 1011.01 1011.94 1012.79 1013.54 1014.21 1014.80 1015.36 1015.90 1016.45 1017.01 1017.58 1018.13 1018.65
1012.40 1011.65 1010.91 1010.25 1009.77 1009.52 1009.56 1009.90 1010.49 1011.25 1012.02 1012.64 1012.97 1012.87 1012.28 1011.21 1009.72 1007.97 1006.12 1004.36 1002.84 1001.68 1000.95 1000.64 1000.72 1001.12 1001.74 1002.50 1003.34 1004.23 1005.14 1006.08 1007.05 1008.04 1009.05 1010.05 1011.03 1011.95 1012.80 1013.55 1014.22 1014.82 1015.36 1015.89 1016.41 1016.94 1017.47 1017.98 1018.46
1013.74 1013.06 1012.38 1011.78 1011.32 1011.07 1011.08 1011.38 1011.91 1012.60 1013.30 1013.87 1014.15 1014.01 1013.40 1012.30 1010.78 1008.96 1007.03 1005.15 1003.49 1002.18 1001.30 1000.86 1000.83 1001.15 1001.73 1002.47 1003.33 1004.24 1005.17 1006.13 1007.10 1008.09 1009.08 1010.07 1011.03 1011.94 1012.78 1013.54 1014.22 1014.83 1015.38 1015.90 1016.41 1016.91 1017.40 1017.88 1018.33
1015.30 1014.73 1014.15 1013.61 1013.16 1012.88 1012.81 1012.97 1013.34 1013.85 1014.39 1014.81 1014.99 1014.79 1014.15 1013.05 1011.55 1009.75 1007.82 1005.92 1004.21 1002.82 1001.83 1001.27 1001.13 1001.35 1001.85 1002.55 1003.37 1004.26 1005.20 1006.15 1007.11 1008.09 1009.07 1010.04 1010.98 1011.88 1012.72 1013.49 1014.18 1014.81 1015.38 1015.91 1016.41 1016.90 1017.37 1017.81 1018.23
1016.97 1016.55 1016.09 1015.63 1015.20 1014.86 1014.67 1014.65 1014.79 1015.06 1015.36 1015.57 1015.59 1015.30 1014.63 1013.56 1012.12 1010.40 1008.55 1006.69 1004.99 1003.57 1002.51 1001.85 1001.59 1001.69 1002.08 1002.69 1003.45 1004.29 1005.19 1006.12 1007.07 1008.02 1008.98 1009.93 1010.86 1011.75 1012.60 1013.38 1014.09 1014.74 1015.33 1015.88 1016.39 1016.87 1017.33 1017.75 1018.14
1018.63 1018.38 1018.06 1017.68 1017.27 1016.88 1016.56 1016.34 1016.24 1016.24 1016.27 1016.25 1016.09 1015.69 1014.99 1013.96 1012.61 1011.00 1009.25 1007.49 1005.83 1004.41 1003.29 1002.53 1002.16 1002.12 1002.38 1002.87 1003.52 1004.30 1005.14 1006.04 1006.95 1007.88 1008.82 1009.75 1010.67 1011.56 1012.40 1013.19 1013.93 1014.61 1015.23 1015.80 1016.33 1016.82 1017.27 1017.68 1018.05
1020.14 1020.05 1019.87 1019.59 1019.22 1018.80 1018.37 1017.97 1017.65 1017.39 1017.17 1016.93 1016.59 1016.09 1015.36 1014.37 1013.10 1011.61 1009.98 1008.31 1006.71 1005.29 1004.12 1003.27 1002.76 1002.57 1002.68 1003.03 1003.58 1004.26 1005.05 1005.89 1006.78 1007.69 1008.61 1009.52 1010.43 1011.31 1012.16 1012.97 1013.72 1014.43 1015.09 1015.69 1016.24 1016.75 1017.20 1017.61 1017.97
Thickness
5701 5707 5711 5705 5690 5684 5691 5712 5726 5730 5735 5743 5746 5745 5738 5729 5726 5716 5729 5740 5741 5739 5737 5736 5736 5736 5737 5738 5739 5739 5739 5739 5739 5738 5738 5738 5738 5738 5738 5737 5737 5737 5736 5736 5735 5734 5733 5732 5731
5694 5701 5699 5690 5677 5675 5691 5710 5715 5723 5732 5738 5740 5739 5732 5724 5728 5726 5729 5734 5735 5733 5732 5731 5730 5731 5732 5733 5734 5734 5735 5735 5735 5734 5734 5734 5734 5734 5734 5733 5733 5733 5732 5732 5731 5730 5729 5728 5727
5687 5691 5682 5677 5676 5681 5694 5709 5713 5721 5729 5729 5726 5728 5723 5717 5721 5721 5725 5729 5728 5727 5726 5725 5725 5725 5726 5728 5728 5729 5730 5730 5730 5730 5730 5730 5730 5730 5729 5729 5729 5728 5728 5727 5727 5726 5725 5724 5723
5677 5675 5673 5667 5672 5690 5698 5705 5710 5711 5717 5721 5718 5711 5713 5714 5717 5718 5721 5722 5721 5719 5719 5718 5718 5719 5720 5721 5723 5723 5724 5725 5725 5725 5725 5725 5725 5725 5725 5725 5724 5724 5723 5723 5722 5722 5721 5720 5719
5666 5661 5655 5657 5671 5685 5693 5702 5704 5701 5703 5709 5708 5699 5697 5706 5713 5714 5715 5715 5713 5712 5712 5710 5711 5712 5713 5714 5716 5717 5718 5719 5720 5720 5720 5720 5720 5720 5720 5720 5720 5719 5718 5718 5718 5717 5716 5715 5714
5650 5653 5646 5651 5666 5676 5684 5692 5694 5692 5693 5698 5697 5691 5687 5698 5702 5704 5706 5707 5706 5705 5704 5703 5704 5704 5706 5707 5709 5710 5712 5713 5714 5714 5715 5715 5716 5715 5715 5715 5715 5714 5714 5713 5713 5712 5711 5710 5710
5638 5640 5643 5651 5656 5663 5673 5682 5681 5679 5680 5684 5689 5681 5680 5687 5693 5696 5697 5698 5697 5696 5695 5695 5696 5697 5698 5700 5702 5703 5705 5706 5707 5708 5709 5710 5710 5711 5710 5710 5710 5709 5709 5708 5707 5707 5707 5706 5705
5633 5632 5636 5643 5645 5652 5665 5671 5672 5671 5671 5681 5682 5671 5668 5677 5683 5686 5686 5686 5686 5686 5686 5687 5688 5689 5690 5692 5694 5696 5697 5699 5701 5702 5703 5703 5704 5705 5705 5705 5705 5704 5704 5703 5702 5702 5702 5701 5700
5626 5617 5622 5632 5636 5643 5653 5653 5658 5664 5664 5666 5669 5667 5668 5671 5673 5672 5672 5673 5674 5675 5677 5679 5679 5681 5682 5684 5686 5688 5690 5691 5693 5695 5696 5697 5698 5699 5699 5699 5699 5699 5699 5698 5698 5697 5697 5696 5696
5611 5606 5616 5630 5633 5633 5636 5637 5640 5644 5644 5647 5650 5655 5658 5660 5659 5658 5660 5661 5662 5664 5667 5670 5671 5672 5674 5676 5678 5680 5682 5684 5686 5688 5689 5690 5692 5693 5693 5694 5694 5694 5694 5694 5693 5692 5692 5691 5691
5603 5601 5610 5618 5623 5621 5621 5624 5631 5629 5628 5635 5637 5640 5643 5645 5647 5647 5648 5651 5653 5654 5657 5660 5662 5664 5665 5668 5670 5673 5675 5676 5679 5681 5683 5684 5686 5687 5687 5687 5688 5688 5688 5688 5688 5688 5687 5687 5687
5594 5597 5602 5605 5609 5608 5608 5612 5615 5619 5622 5630 5633 5634 5634 5634 5635 5637 5638 5641 5643 5644 5647 5650 5653 5655 5657 5659 5662 5665 5667 5669 5672 5674 5675 5677 5679 5680 5681 5682 5682 5682 5682 5682 5683 5683 5683 5682 5682
5584 5586 5592 5595 5597 5597 5599 5600 5603 5607 5615 5621 5624 5624 5624 5625 5627 5629 5631 5632 5633 5634 5636 5640 5643 5646 5648 5651 5654 5657 5659 5662 5665 5667 5669 5670 5671 5672 5674 5675 5676 5676 5676 5676 5677 5678 5677 5677 5676
5578 5579 5582 5585 5587 5588 5588 5591 5593 5599 5607 5610 5613 5614 5615 5617 5619 5620 5621 5622 5623 5625 5627 5630 5633 5636 5639 5642 5645 5648 5651 5654 5656 5658 5661 5663 5664 5665 5666 5667 5668 5669 5669 5670 5670 5671 5671 5671 5670
5574 5570 5572 5577 5579 5580 5580 5577 5583 5593 5598 5599 5602 5605 5608 5610 5611 5612 5613 5613 5614 5616 5618 5620 5624 5626 5629 5631 5635 5638 5642 5646 5648 5650 5653 5655 5656 5656 5658 5659 5660 5661 5662 5663 5663 5663 5663 5663 5662
5566 5561 5559 5570 5575 5576 5569 5565 5581 5588 5589 5591 5595 5599 5600 5602 5603 5604 5605 5605 5605 5607 5609 5611 5614 5616 5619 5622 5625 5629 5632 5635 5638 5641 5644 5646 5648 5648 5650 5651 5652 5653 5654 5655 5655 5655 5655 5654 5654
5555 5549 5552 5562 5572 5572 5566 5563 5575 5581 5583 5585 5587 5591 5593 5595 5595 5596 5596 5596 5597 5598 5600 5602 5604 5607 5610 5613 5616 5620 5623 5626 5628 5631 5634 5636 5639 5640 5641 5642 5643 5645 5646 5645 5646 5647 5647 5646 5645
5544 5547 5551 5555 5564 5565 5561 5560 5567 5574 5577 5578 5580 5583 5585 5586 5586 5587 5588 5589 5588 5589 5591 5592 5595 5598 5601 5604 5608 5610 5613 5616 5619 5621 5624 5627 5630 5631 5632 5633 5634 5636 5636 5637 5637 5638 5639 5638 5638
5548 5545 5544 5552 5562 5557 5554 5556 5561 5567 5569 5571 5573 5575 5577 5578 5578 5579 5579 5580 5580 5581 5582 5584 5585 5588 5592 5595 5597 5600 5603 5605 5608 5612 5614 5618 5620 5622 5623 5624 5625 5627 5628 5629 5630 5629 5630 5630 5630
5543 5539 5541 5550 5556 5551 5549 5552 5557 5562 5563 5565 5566 5568 5569 5570 5569 5570 5571 5571 5572 5572 5573 5576 5577 5580 5584 5586 5588 5591 5594 5596 5599 5602 5605 5607 5610 5612 5614 5615 5617 5618 5619 5620 5621 5622 5620 5621 5621
5540 5537 5538 5539 5544 5549 5548 5547 5553 5557 5559 5560 5561 5563 5563 5563 5562 5562 5563 5563 5564 5564 5565 5568 5570 5573 5576 5579 5581 5583 5585 5586 5589 5592 5595 5597 5600 5602 5603 5606 5608 5609 5609 5610 5612 5613 5612 5611 5611
5532 5540 5538 5537 5533 5533 5543 5531 5545 5549 5550 5552 5553 5554 5554 5555 5555 5555 5556 5556 5556 5557 5558 5559 5562 5564 5568 5571 5572 5574 5575 5575 5578 5581 5584 5587 5590 5592 5594 5596 5598 5598 5599 5601 5603 5604 5604 5603 5602
5531 5537 5536 5536 5532 5528 5534 5529 5537 5544 5541 5543 5545 5547 5547 5548 5548 5548 5549 5550 5550 5550 5551 5551 5553 5556 5559 5561 5564 5565 5566 5567 5569 5572 5574 5577 5580 5582 5584 5586 5588 5589 5590 5591 5593 5594 5595 5594 5593
5531 5532 5534 5534 5527 5517 5531 5529 5528 5533 5537 5539 5540 5540 5540 5540 5540 5540 5541 5542 5543 5543 5544 5544 5546 5547 5550 5552 5554 5556 5557 5558 5560 5562 5564 5567 5569 5572 5574 5577 5578 5579 5581 5582 5582 5583 5584 5584 5584
5524 5515 5511 5511 5511 5518 5535 5528 5522 5533 5537 5536 5535 5533 5533 5532 5532 5532 5533 5534 5535 5536 5536 5537 5539 5540 5542 5544 5545 5547 5548 5549 5551 5554 5555 5557 5559 5562 5565 5567 5569 5570 5571 5572 5572 5573 5573 5574 5574
5514 5512 5500 5500 5506 5516 5525 5518 5522 5531 5533 5533 5532 5529 5527 5526 5526 5526 5526 5526 5527 5529 5529 5530 5532 5533 5535 5536 5537 5538 5538 5540 5543 5545 5547 5549 5551 5553 5556 5558 5559 5561 5562 5563 5563 5563 5563 5564 5564
5509 5505 5509 5500 5504 5501 5512 5520 5520 5525 5524 5525 5524 5521 5519 5518 5519 5519 5520 5520 5520 5521 5522 5523 5525 5526 5527 5527 5528 5529 5529 5531 5533 5535 5538 5540 5542 5544 5546 5548 5550 5551 5552 5553 5553 5553 5554 5554 5553
5505 5505 5497 5493 5492 5497 5508 5513 5508 5508 5510 5514 5513 5511 5510 5510 5510 5511 5512 5513 5514 5515 5516 5516 5517 5518 5519 5519 5519 5521 5521 5522 5524 5526 5528 5530 5532 5535 5536 5539 5540 5541 5542 5542 5543 5543 5544 5544 5544
5496 5493 5491 5492 5495 5491 5490 5495 5507 5504 5503 5504 5504 5504 5503 5502 5502 5503 5504 5506 5507 5508 5508 5509 5510 5510 5510 5510 5511 5512 5512 5513 5515 5517 5518 5520 5523 5526 5527 5529 5530 5531 5532 5533 5533 5533 5533 5533 5534
5492 5489 5484 5476 5480 5488 5481 5483 5501 5497 5496 5496 5496 5496 5496 5495 5495 5496 5497 5498 5499 5500 5500 5501 5502 5502 5502 5502 5503 5503 5504 5504 5506 5507 5509 5511 5513 5515 5518 5519 5520 5521 5522 5522 5523 5523 5523 5523 5523